VE6CPK-13 Weather Reports


time (UTC)temp
C
wind
direction
speed
KPH
gust
KPH
rain 1hr
cm
rain 24hr
cm
rain mn
cm
humidity
%
barometer
mb
20260503231639 19 16 4.8 24.1 0.00 0.00 0.00 30 1002.4
20260503231138 20 7 8.0 24.1 0.00 0.00 0.00 29 1002.5
20260503230637 20 17 9.7 24.1 0.00 0.00 0.00 28 1002.4
20260503230137 20 22 4.8 24.1 0.00 0.00 0.00 28 1002.3
20260503225637 21 11 8.0 24.1 0.00 0.00 0.00 27 1002.2
20260503225138 21 23 8.0 24.1 0.00 0.00 0.00 27 1002.2
20260503224638 21 349 4.8 24.1 0.00 0.00 0.00 26 1002.2
20260503224138 21 23 4.8 24.1 0.00 0.00 0.00 24 1002.0
20260503223637 21 16 3.2 24.1 0.00 0.00 0.00 24 1002.0
20260503223137 21 18 8.0 24.1 0.00 0.00 0.00 24 1002.1
20260503222637 21 330 3.2 24.1 0.00 0.00 0.00 24 1002.1
20260503222137 22 15 4.8 24.1 0.00 0.00 0.00 24 1002.0
20260503221637 21 13 1.6 24.1 0.00 0.00 0.00 24 1001.9
20260503221137 21 15 4.8 24.1 0.00 0.00 0.00 24 1002.1
20260503220637 21 32 3.2 24.1 0.00 0.00 0.00 24 1002.2
20260503220138 21 4 8.0 24.1 0.00 0.00 0.00 24 1002.2
20260503215638 21 342 1.6 24.1 0.00 0.00 0.00 24 1002.2
20260503215138 21 24 4.8 24.1 0.00 0.00 0.00 24 1002.3
20260503214638 21 345 3.2 24.1 0.00 0.00 0.00 25 1002.3
20260503214138 21 14 8.0 24.1 0.00 0.00 0.00 25 1002.3
20260503213637 21 346 3.2 24.1 0.00 0.00 0.00 25 1002.3
20260503213137 21 10 4.8 24.1 0.00 0.00 0.00 24 1002.4
20260503212637 21 9 8.0 24.1 0.00 0.00 0.00 24 1002.4
20260503212137 21 32 4.8 24.1 0.00 0.00 0.00 24 1002.4
20260503211637 21 21 4.8 24.1 0.00 0.00 0.00 24 1002.4
20260503211137 21 344 1.6 24.1 0.00 0.00 0.00 24 1002.5
20260503210637 21 36 3.2 24.1 0.00 0.00 0.00 24 1002.5
20260503210137 21 26 4.8 24.1 0.00 0.00 0.00 24 1002.7
20260503205636 22 7 3.2 24.1 0.00 0.00 0.00 24 1002.7
20260503205138 22 17 3.2 24.1 0.00 0.00 0.00 23 1002.7
20260503204638 22 348 4.8 24.1 0.00 0.00 0.00 22 1002.8
20260503204138 22 106 0.0 14.5 0.00 0.00 0.00 22 1002.8
20260503203638 22 50 3.2 14.5 0.00 0.00 0.00 21 1002.9
20260503203137 22 192 0.0 14.5 0.00 0.00 0.00 21 1003.1
20260503202636 22 205 0.0 14.5 0.00 0.00 0.00 21 1003.0
20260503202137 23 16 0.0 14.5 0.00 0.00 0.00 21 1003.0
20260503201638 23 37 0.0 14.5 0.00 0.00 0.00 20 1003.1
20260503201138 23 49 1.6 14.5 0.00 0.00 0.00 21 1003.2
20260503200638 23 81 1.6 14.5 0.00 0.00 0.00 21 1003.3
20260503200138 22 28 0.0 14.5 0.00 0.00 0.00 21 1003.4
20260503195637 22 8 0.0 14.5 0.00 0.00 0.00 21 1003.5
20260503195137 22 5 0.0 14.5 0.00 0.00 0.00 23 1003.6
20260503194637 22 5 0.0 14.5 0.00 0.00 0.00 23 1003.7
20260503194137 22 5 0.0 14.5 0.00 0.00 0.00 22 1003.7
20260503193637 22 355 1.6 14.5 0.00 0.00 0.00 21 1003.8
20260503193137 22 71 0.0 14.5 0.00 0.00 0.00 22 1003.9
20260503192636 22 22 1.6 14.5 0.00 0.00 0.00 23 1003.9
20260503192136 22 24 1.6 14.5 0.00 0.00 0.00 22 1004.0
20260503191636 22 315 0.0 14.5 0.00 0.00 0.00 23 1004.1
20260503191136 22 2 0.0 14.5 0.00 0.00 0.00 22 1004.1
20260503190637 21 5 3.2 14.5 0.00 0.00 0.00 22 1004.4
20260503190137 21 13 0.0 14.5 0.00 0.00 0.00 23 1004.4
20260503185637 21 96 0.0 14.5 0.00 0.00 0.00 23 1004.5
20260503185137 21 46 0.0 14.5 0.00 0.00 0.00 23 1004.6
20260503184637 21 19 1.6 14.5 0.00 0.00 0.00 22 1004.7
20260503184137 21 345 0.0 14.5 0.00 0.00 0.00 22 1004.8
20260503183637 21 13 0.0 14.5 0.00 0.00 0.00 22 1004.8
20260503183046 21 0 0.0 14.5 0.00 0.00 0.00 23 1004.9
20260503182546 21 27 1.6 14.5 0.00 0.00 0.00 24 1005.0
20260503182046 21 220 0.0 14.5 0.00 0.00 0.00 24 1005.1
20260503181546 21 5 3.2 14.5 0.00 0.00 0.00 24 1005.1
20260503181046 20 22 1.6 14.5 0.00 0.00 0.00 25 1005.1
20260503180548 20 5 0.0 14.5 0.00 0.00 0.00 25 1005.3
20260503180048 20 16 0.0 14.5 0.00 0.00 0.00 27 1005.4
20260503175547 20 5 0.0 14.5 0.00 0.00 0.00 27 1005.5
20260503175047 20 12 1.6 14.5 0.00 0.00 0.00 26 1005.6
20260503174547 20 20 1.6 14.5 0.00 0.00 0.00 26 1005.8
20260503174051 20 10 1.6 14.5 0.00 0.00 0.00 27 1005.9
20260503173551 20 16 3.2 14.5 0.00 0.00 0.00 27 1005.9
20260503173051 20 357 3.2 14.5 0.00 0.00 0.00 26 1006.0
20260503172550 20 23 0.0 14.5 0.00 0.00 0.00 27 1006.1
20260503172050 20 13 1.6 9.7 0.00 0.00 0.00 27 1006.1
20260503171550 19 5 1.6 9.7 0.00 0.00 0.00 27 1006.1
20260503171050 19 69 0.0 8.0 0.00 0.00 0.00 28 1006.1
20260503170550 19 27 1.6 8.0 0.00 0.00 0.00 27 1006.1
20260503150551 12 167 0.0 3.2 0.00 0.00 0.00 41 1007.1
20260503131050 8 132 0.0 3.2 0.00 0.00 0.00 43 1007.5
20260503130550 8 132 0.0 3.2 0.00 0.00 0.00 44 1007.5
20260503110718 9 126 0.0 3.2 0.00 0.00 0.00 42 1007.9
20260503110219 9 126 0.0 3.2 0.00 0.00 0.00 42 1007.9
20260503100218 10 123 0.0 3.2 0.00 0.00 0.00 40 1008.0
20260503090219 10 120 0.0 3.2 0.00 0.00 0.00 39 1007.8
20260503081219 11 120 0.0 3.2 0.00 0.00 0.00 36 1007.8
20260503080718 11 120 0.0 3.2 0.00 0.00 0.00 37 1007.8
20260503080217 11 186 0.0 3.2 0.00 0.00 0.00 36 1007.7
20260503072719 12 174 0.0 1.6 0.00 0.00 0.00 36 1008.1
20260503072218 12 174 0.0 1.6 0.00 0.00 0.00 35 1008.0
20260503071717 12 174 0.0 1.6 0.00 0.00 0.00 35 1008.0
20260503071219 12 174 0.0 1.6 0.00 0.00 0.00 35 1008.0
20260503070718 12 174 0.0 1.6 0.00 0.00 0.00 36 1007.9
20260503070217 12 174 0.0 1.6 0.00 0.00 0.00 35 1007.9
20260503060219 12 176 0.0 0.0 0.00 0.00 0.00 35 1007.9
20260503054717 12 175 0.0 11.3 0.00 0.00 0.00 35 1007.9
20260503054219 12 175 0.0 11.3 0.00 0.00 0.00 35 1007.8
20260503053717 12 175 0.0 11.3 0.00 0.00 0.00 35 1007.8
20260503053217 12 175 0.0 11.3 0.00 0.00 0.00 35 1007.8
20260503052717 12 175 0.0 11.3 0.00 0.00 0.00 36 1007.8
20260503052218 12 175 0.0 11.3 0.00 0.00 0.00 35 1007.7
20260503051718 12 175 0.0 11.3 0.00 0.00 0.00 36 1007.7
20260503051218 12 175 0.0 11.3 0.00 0.00 0.00 35 1007.7
20260503050719 12 175 0.0 11.3 0.00 0.00 0.00 35 1007.6
20260503050218 12 175 0.0 11.3 0.00 0.00 0.00 36 1007.6
20260503045717 12 175 0.0 11.3 0.00 0.00 0.00 36 1007.6
20260503045218 12 175 0.0 11.3 0.00 0.00 0.00 36 1007.6
20260503044718 12 175 0.0 11.3 0.00 0.00 0.00 36 1007.5
20260503044218 12 175 0.0 11.3 0.00 0.00 0.00 38 1007.5
20260503043717 12 175 0.0 11.3 0.00 0.00 0.00 38 1007.6
20260503043218 12 175 0.0 11.3 0.00 0.00 0.00 38 1007.5
20260503042718 13 175 0.0 11.3 0.00 0.00 0.00 38 1007.5
20260503042217 13 175 0.0 11.3 0.00 0.00 0.00 40 1007.5
20260503041718 13 175 0.0 11.3 0.00 0.00 0.00 41 1007.5
20260503041217 13 175 0.0 11.3 0.00 0.00 0.00 45 1007.4
20260503040718 13 175 0.0 11.3 0.00 0.00 0.00 48 1007.3
20260503040218 13 175 0.0 11.3 0.00 0.00 0.00 47 1007.3
20260503035717 13 175 0.0 11.3 0.00 0.00 0.00 47 1007.2
20260503035217 13 175 0.0 11.3 0.00 0.00 0.00 49 1007.2
20260503034718 14 174 0.0 11.3 0.00 0.00 0.00 49 1007.2
20260503034218 14 174 0.0 11.3 0.00 0.00 0.00 49 1007.1
20260503033717 14 174 0.0 11.3 0.00 0.00 0.00 48 1007.1
20260503033219 15 174 0.0 11.3 0.00 0.00 0.00 48 1007.1
20260503032717 15 174 0.0 11.3 0.00 0.00 0.00 47 1007.1
20260503032217 15 174 0.0 11.3 0.00 0.00 0.00 47 1007.0
20260503031717 15 172 0.0 11.3 0.00 0.00 0.00 46 1007.0
20260503031217 15 173 0.0 11.3 0.00 0.00 0.00 45 1007.0
20260503030717 16 173 0.0 11.3 0.00 0.00 0.00 44 1006.9
20260503030217 16 173 0.0 11.3 0.00 0.00 0.00 41 1006.9
20260503025717 16 173 0.0 11.3 0.00 0.00 0.00 40 1006.9
20260503025217 16 173 0.0 11.3 0.00 0.00 0.00 40 1006.8
20260503024717 16 173 0.0 11.3 0.00 0.00 0.00 45 1006.9
20260503024217 16 173 0.0 11.3 0.00 0.00 0.00 44 1006.8
20260503023717 16 173 0.0 11.3 0.00 0.00 0.00 44 1006.9
20260503023216 16 173 0.0 11.3 0.00 0.00 0.00 43 1006.9
20260503022716 16 173 1.6 11.3 0.00 0.00 0.00 42 1006.7
20260503022216 16 175 1.6 11.3 0.00 0.00 0.00 41 1006.9
20260503021718 16 166 1.6 11.3 0.00 0.00 0.00 41 1006.9
20260503021218 17 167 0.0 11.3 0.00 0.00 0.00 41 1006.9
20260503020718 17 167 0.0 11.3 0.00 0.00 0.00 40 1007.0
20260503020218 17 178 0.0 11.3 0.00 0.00 0.00 40 1006.9
20260503015717 17 171 0.0 11.3 0.00 0.00 0.00 38 1007.0
20260503015217 17 170 0.0 11.3 0.00 0.00 0.00 37 1007.1
20260503014717 17 126 0.0 11.3 0.00 0.00 0.00 36 1007.1
20260503014217 17 171 0.0 11.3 0.00 0.00 0.00 36 1007.1
20260503013717 18 171 0.0 11.3 0.00 0.00 0.00 35 1007.1
20260503013217 18 174 0.0 11.3 0.00 0.00 0.00 34 1007.1
20260503012716 18 175 0.0 11.3 0.00 0.00 0.00 34 1007.2
20260503012216 18 174 0.0 11.3 0.00 0.00 0.00 35 1007.3
20260503011718 18 174 0.0 11.3 0.00 0.00 0.00 34 1007.3
20260503011218 18 173 0.0 11.3 0.00 0.00 0.00 33 1007.4
20260503010718 18 174 0.0 11.3 0.00 0.00 0.00 31 1007.3
20260503010218 18 167 0.0 11.3 0.00 0.00 0.00 33 1007.4
20260503005718 18 169 0.0 11.3 0.00 0.00 0.00 33 1007.4
20260503005217 18 190 0.0 11.3 0.00 0.00 0.00 33 1007.5
20260503004717 18 198 1.6 11.3 0.00 0.00 0.00 32 1007.5
20260503004217 18 179 0.0 11.3 0.00 0.00 0.00 33 1007.6
20260503003717 18 180 1.6 11.3 0.00 0.00 0.00 34 1007.6
20260503003217 18 182 0.0 11.3 0.00 0.00 0.00 34 1007.6
20260503002717 18 182 1.6 11.3 0.00 0.00 0.00 34 1007.6
20260503002217 18 172 0.0 11.3 0.00 0.00 0.00 34 1007.8
20260503001717 18 173 0.0 11.3 0.00 0.00 0.00 34 1007.8
20260503001217 19 171 1.6 11.3 0.00 0.00 0.00 34 1007.9
20260503000717 19 172 1.6 11.3 0.00 0.00 0.00 34 1007.9
20260503000218 19 165 1.6 11.3 0.00 0.00 0.00 35 1007.8
20260502235717 19 178 0.0 11.3 0.00 0.00 0.00 35 1007.9
20260502235217 19 174 1.6 11.3 0.00 0.00 0.00 35 1008.0
20260502234717 19 169 0.0 11.3 0.00 0.00 0.00 36 1008.0
20260502234217 18 170 1.6 11.3 0.00 0.00 0.00 35 1008.1
20260502233716 18 169 0.0 11.3 0.00 0.00 0.00 35 1008.1
20260502233216 18 175 1.6 11.3 0.00 0.00 0.00 35 1008.2
20260502232716 18 179 1.6 11.3 0.00 0.00 0.00 35 1008.3
20260502232218 19 177 3.2 11.3 0.00 0.00 0.00 35 1008.4
20260502231718 19 172 0.0 11.3 0.00 0.00 0.00 35 1008.4